Volver al catálogo

SL-8 R/B

ActivoLEO
NORAD 11870·ROCKET BODY·🇷🇺 Russia

Lanzado Jul 1, 1980 desde Plesetsk Cosmodrome

Loading…

Próximos Pases (próximas 24 horas)

TLE

ActualizadoSource: Space-Track

Época: Sep 14, 2026, 15:21 UTC

1 11870U 80056B   26257.63993483  .00000081  00000-0  35152-4 0  9992
2 11870  74.0520 122.2430 0016706 311.6317  48.3405 14.38460899396063

Sigue SL-8 R/B en tiempo real con AllMySat

Download on the App Store